Aérodrome :
LOGIN :

S'inscrire | Disclaimer

   EN    FR    IT 

 










Légende :    VFR   VFR Marginal   IFR   IFR Intensif   IFR Très Intensif
Visi : 
Plafond : 
>= 8 km
>= 3000ft
5 à 8 km
1000 à 3000 ft
1500m à 5 km
500 à 1000 ft
800 à 1500m
200 à 500 ft
< 800m
< 200 ft
Symboles :   Orages  Brouillard  Fortes neiges  Fortes précipitations  Vent > 20 kt
SIGMETs :   Divers  Orages  Givrage  Turbulence  Onde Orograph.  Cendres Volcan.







- Altitude de l'aérodrome : 289 ft
- Voir les cartes d'approche


LFYR - Romorantin Pruniers

DERNIER METAR :
  • 171130Z AUTO 05004KT 340V140 CAVOK 22/12 Q1018 NOSIG

METARs EXPIRÉS :
  • 171100Z AUTO 05005KT 350V120 CAVOK 21/12 Q1018 NOSIG
  • 171030Z AUTO 09005KT 040V130 CAVOK 20/11 Q1018 NOSIG
  • 171000Z AUTO VRB03KT CAVOK 19/11 Q1019 NOSIG
  • 170930Z AUTO VRB03KT CAVOK 17/11 Q1019 NOSIG
  • 170900Z AUTO VRB02KT CAVOK 16/11 Q1019 NOSIG

Prévision TAF périmée.
Pas de NOTAMs connus pour ce terrain.



MET'MAP, la Météo Aéronautique d'un coup d'oeil ! - Copyright ORBIFLY Décembre 2007 - Disclaimer

ORBIFLY MET'MAP TEAM :

Programmation & Développement : Alexandra Zaïnal
Conception & Développement : Baudouin d'Aumeries
Co-Programmation & Développement : Marc-Olivier Méhu
Soutien technique & logistique : Manuel Goepfert

Contact : metmap@orbifly.com




SOURCES & CREDITS :

   NOAA